This is the latest recevied weather packets stored in our database for station/object WA1OUI. If no packets are shown the sender has not sent any weather packets the latest 10 day(s).
| Time | Temp. | Humidity | Pressure | Rain* | Wind** | Luminosity | Snow |
|---|---|---|---|---|---|---|---|
| 1777536551 | 8.89° C | 97% | 1006.6 hPa | 0.51 mm | - | 0 W/m² | - |
| 1777536247 | 8.89° C | 97% | 1006.5 hPa | 0.51 mm | - | 0 W/m² | - |
| 1777535942 | 8.89° C | 97% | 1006.7 hPa | 1.27 mm | - | 0 W/m² | - |
| 1777535639 | 8.89° C | 97% | 1006.8 hPa | 1.27 mm | - | 0 W/m² | - |
| 1777535033 | 8.89° C | 97% | 1006.8 hPa | 0 mm | - | 0 W/m² | - |
| 1777534730 | 8.89° C | 97% | 1006.8 hPa | 0.51 mm | - | 0 W/m² | - |
| 1777534427 | 8.89° C | 97% | 1006.8 hPa | 1.27 mm | - | 0 W/m² | - |
| 1777534124 | 8.89° C | 97% | 1006.8 hPa | 1.27 mm | - | 0 W/m² | - |
| 1777533822 | 8.89° C | 97% | 1007 hPa | 0.51 mm | - | 0 W/m² | - |
| 1777533518 | 8.89° C | 97% | 1006.9 hPa | 0.51 mm | - | 0 W/m² | - |
| 1777533214 | 8.89° C | 97% | 1007.2 hPa | 1.27 mm | - | 0 W/m² | - |
| 1777532911 | 8.89° C | 96% | 1007 hPa | 1.27 mm | - | 0 W/m² | - |
| 1777532608 | 8.89° C | 96% | 1007 hPa | 0.51 mm | - | 0 W/m² | - |
| 1777532305 | 8.89° C | 96% | 1007 hPa | 0.51 mm | - | 0 W/m² | - |
| 1777531697 | 8.89° C | 96% | 1007.4 hPa | 0 mm | - | 0 W/m² | - |
| 1777531092 | 8.89° C | 96% | 1006.8 hPa | 0.51 mm | - | 0 W/m² | - |
| 1777530789 | 8.89° C | 96% | 1006.7 hPa | 1.78 mm | - | 0 W/m² | - |
| 1777530487 | 8.89° C | 96% | 1006.8 hPa | 1.78 mm | - | 0 W/m² | - |
| 1777530182 | 8.89° C | 96% | 1006.7 hPa | 1.78 mm | - | 0 W/m² | - |
| 1777529880 | 8.89° C | 96% | 1006.7 hPa | 2.29 mm | - | 0 W/m² | - |
| 1777529576 | 8.89° C | 95% | 1006.7 hPa | 2.29 mm | - | 0 W/m² | - |
| 1777529274 | 8.89° C | 95% | 1006.9 hPa | 2.29 mm | - | 0 W/m² | - |
| 1777528969 | 8.89° C | 95% | 1007 hPa | 3.05 mm | - | 0 W/m² | - |
| 1777528665 | 9.44° C | 95% | 1007.2 hPa | 4.32 mm | - | 0 W/m² | - |
| 1777528363 | 9.44° C | 95% | 1007.5 hPa | 4.32 mm | - | 0 W/m² | - |
* Rain latest hour (hover to see other rain measurements)
** Current wind speed in m/s (hover to see current wind gust speed)